Year,Month,Day,Hour,Minute,Value (Times are PST for temperature in C)
2017,07,16,00,00,16.70
2017,07,16,00,01,16.70
2017,07,16,00,02,16.70
2017,07,16,00,03,16.70
2017,07,16,00,04,16.70
2017,07,16,00,05,16.70
2017,07,16,00,06,16.70
2017,07,16,00,07,16.70
2017,07,16,00,08,16.70
2017,07,16,00,09,16.70
2017,07,16,00,10,16.70
2017,07,16,00,11,16.70
2017,07,16,00,12,16.70
2017,07,16,00,13,16.70
2017,07,16,00,14,16.70
2017,07,16,00,15,16.70
2017,07,16,00,16,16.70
2017,07,16,00,17,16.70
2017,07,16,00,18,16.70
2017,07,16,00,19,16.70
2017,07,16,00,20,16.70
2017,07,16,00,21,16.70
2017,07,16,00,22,16.70
2017,07,16,00,23,16.70
2017,07,16,00,24,16.70
2017,07,16,00,25,16.70
2017,07,16,00,26,16.70
2017,07,16,00,27,16.70
2017,07,16,00,28,16.70
2017,07,16,00,29,16.70
2017,07,16,00,30,16.70
2017,07,16,00,31,16.70
2017,07,16,00,32,16.70
2017,07,16,00,33,16.70
2017,07,16,00,34,16.70
2017,07,16,00,35,16.70
2017,07,16,00,36,16.70
2017,07,16,00,37,16.70
2017,07,16,00,38,16.70
2017,07,16,00,39,16.70
2017,07,16,00,40,16.70
2017,07,16,00,41,16.70
2017,07,16,00,42,16.70
2017,07,16,00,43,16.70
2017,07,16,00,44,16.70
2017,07,16,00,45,16.70
2017,07,16,00,46,16.70
2017,07,16,00,47,16.60
2017,07,16,00,48,16.60
2017,07,16,00,49,16.60
2017,07,16,00,50,16.60
2017,07,16,00,51,16.60
2017,07,16,00,52,16.60
2017,07,16,00,53,16.60
2017,07,16,00,54,16.50
2017,07,16,00,55,16.50
2017,07,16,00,56,16.50
2017,07,16,00,57,16.50
2017,07,16,00,58,16.50
2017,07,16,00,59,16.40
2017,07,16,01,00,16.40
2017,07,16,01,01,16.40
2017,07,16,01,02,16.40
2017,07,16,01,03,16.40
2017,07,16,01,04,16.40
2017,07,16,01,05,16.40
2017,07,16,01,06,16.40
2017,07,16,01,07,16.40
2017,07,16,01,08,16.40
2017,07,16,01,09,16.30
2017,07,16,01,10,16.30
2017,07,16,01,11,16.30
2017,07,16,01,12,16.30
2017,07,16,01,13,16.30
2017,07,16,01,14,16.30
2017,07,16,01,15,16.30
2017,07,16,01,16,16.30
2017,07,16,01,17,16.30
2017,07,16,01,18,16.20
2017,07,16,01,19,16.20
2017,07,16,01,20,16.20
2017,07,16,01,21,16.20
2017,07,16,01,22,16.20
2017,07,16,01,23,16.20
2017,07,16,01,24,16.20
2017,07,16,01,25,16.20
2017,07,16,01,26,16.20
2017,07,16,01,27,16.20
2017,07,16,01,28,16.20
2017,07,16,01,29,16.20
2017,07,16,01,30,16.20
2017,07,16,01,31,16.20
2017,07,16,01,32,16.20
2017,07,16,01,33,16.20
2017,07,16,01,34,16.20
2017,07,16,01,35,16.20
2017,07,16,01,36,16.20
2017,07,16,01,37,16.20
2017,07,16,01,38,16.20
2017,07,16,01,39,16.20
2017,07,16,01,40,16.20
2017,07,16,01,41,16.20
2017,07,16,01,42,16.20
2017,07,16,01,43,16.20
2017,07,16,01,44,16.20
2017,07,16,01,45,16.20
2017,07,16,01,46,16.20
2017,07,16,01,47,16.20
2017,07,16,01,48,16.20
2017,07,16,01,49,16.20
2017,07,16,01,50,16.20
2017,07,16,01,51,16.20
2017,07,16,01,52,16.20
2017,07,16,01,53,16.20
2017,07,16,01,54,16.20
2017,07,16,01,55,16.20
2017,07,16,01,56,16.20
2017,07,16,01,57,16.20
2017,07,16,01,58,16.20
2017,07,16,01,59,16.10
2017,07,16,02,00,16.10
2017,07,16,02,01,16.10
2017,07,16,02,02,16.10
2017,07,16,02,03,16.10
2017,07,16,02,04,16.10
2017,07,16,02,05,16.10
2017,07,16,02,06,16.10
2017,07,16,02,07,16.10
2017,07,16,02,08,16.10
2017,07,16,02,09,16.10
2017,07,16,02,10,16.10
2017,07,16,02,11,16.10
2017,07,16,02,12,16.00
2017,07,16,02,13,16.00
2017,07,16,02,14,16.00
2017,07,16,02,15,16.00
2017,07,16,02,16,16.00
2017,07,16,02,17,16.00
2017,07,16,02,18,16.00
2017,07,16,02,19,16.00
2017,07,16,02,20,16.00
2017,07,16,02,21,16.00
2017,07,16,02,22,16.00
2017,07,16,02,23,16.00
2017,07,16,02,24,15.90
2017,07,16,02,25,15.90
2017,07,16,02,26,15.90
2017,07,16,02,27,15.90
2017,07,16,02,28,15.90
2017,07,16,02,29,15.90
2017,07,16,02,30,15.90
2017,07,16,02,31,15.90
2017,07,16,02,32,15.90
2017,07,16,02,33,15.90
2017,07,16,02,34,15.90
2017,07,16,02,35,15.80
2017,07,16,02,36,15.80
2017,07,16,02,37,15.80
2017,07,16,02,38,15.80
2017,07,16,02,39,15.80
2017,07,16,02,40,15.80
2017,07,16,02,41,15.80
2017,07,16,02,42,15.70
2017,07,16,02,43,15.70
2017,07,16,02,44,15.70
2017,07,16,02,45,15.70
2017,07,16,02,46,15.70
2017,07,16,02,47,15.70
2017,07,16,02,48,15.70
2017,07,16,02,49,15.60
2017,07,16,02,50,15.60
2017,07,16,02,51,15.60
2017,07,16,02,52,15.60
2017,07,16,02,53,15.60
2017,07,16,02,54,15.60
2017,07,16,02,55,15.60
2017,07,16,02,56,15.50
2017,07,16,02,57,15.50
2017,07,16,02,58,15.50
2017,07,16,02,59,15.50
2017,07,16,03,00,15.50
2017,07,16,03,01,15.40
2017,07,16,03,02,15.40
2017,07,16,03,03,15.40
2017,07,16,03,04,15.40
2017,07,16,03,05,15.40
2017,07,16,03,06,15.40
2017,07,16,03,07,15.40
2017,07,16,03,08,15.40
2017,07,16,03,09,15.40
2017,07,16,03,10,15.30
2017,07,16,03,11,15.30
2017,07,16,03,12,15.30
2017,07,16,03,13,15.30
2017,07,16,03,14,15.30
2017,07,16,03,15,15.30
2017,07,16,03,16,15.30
2017,07,16,03,17,15.30
2017,07,16,03,18,15.20
2017,07,16,03,19,15.20
2017,07,16,03,20,15.20
2017,07,16,03,21,15.10
2017,07,16,03,22,15.10
2017,07,16,03,23,15.10
2017,07,16,03,24,15.00
2017,07,16,03,25,15.00
2017,07,16,03,26,15.00
2017,07,16,03,27,15.00
2017,07,16,03,28,14.90
2017,07,16,03,29,14.90
2017,07,16,03,30,14.90
2017,07,16,03,31,14.90
2017,07,16,03,32,14.90
2017,07,16,03,33,14.80
2017,07,16,03,34,14.80
2017,07,16,03,35,14.80
2017,07,16,03,36,14.80
2017,07,16,03,37,14.80
2017,07,16,03,38,14.80
2017,07,16,03,39,14.80
2017,07,16,03,40,14.80
2017,07,16,03,41,14.90
2017,07,16,03,42,14.90
2017,07,16,03,43,14.90
2017,07,16,03,44,14.90
2017,07,16,03,45,14.90
2017,07,16,03,46,14.90
2017,07,16,03,47,14.80
2017,07,16,03,48,14.80
2017,07,16,03,49,14.80
2017,07,16,03,50,14.80
2017,07,16,03,51,14.80
2017,07,16,03,52,14.80
2017,07,16,03,53,14.80
2017,07,16,03,54,14.80
2017,07,16,03,55,14.80
2017,07,16,03,56,14.70
2017,07,16,03,57,14.70
2017,07,16,03,58,14.70
2017,07,16,03,59,14.70
2017,07,16,04,00,14.70
2017,07,16,04,01,14.70
2017,07,16,04,02,14.70
2017,07,16,04,03,14.70
2017,07,16,04,04,14.70
2017,07,16,04,05,14.70
2017,07,16,04,06,14.60
2017,07,16,04,07,14.60
2017,07,16,04,08,14.70
2017,07,16,04,09,14.70
2017,07,16,04,10,14.60
2017,07,16,04,11,14.70
2017,07,16,04,12,14.60
2017,07,16,04,13,14.70
2017,07,16,04,14,14.70
2017,07,16,04,15,14.70
2017,07,16,04,16,14.70
2017,07,16,04,17,14.60
2017,07,16,04,18,14.60
2017,07,16,04,19,14.60
2017,07,16,04,20,14.60
2017,07,16,04,21,14.60
2017,07,16,04,22,14.60
2017,07,16,04,23,14.60
2017,07,16,04,24,14.60
2017,07,16,04,25,14.60
2017,07,16,04,26,14.60
2017,07,16,04,27,14.60
2017,07,16,04,28,14.60
2017,07,16,04,29,14.70
2017,07,16,04,30,14.70
2017,07,16,04,31,14.70
2017,07,16,04,32,14.70
2017,07,16,04,33,14.70
2017,07,16,04,34,14.70
2017,07,16,04,35,14.70
2017,07,16,04,36,14.70
2017,07,16,04,37,14.70
2017,07,16,04,38,14.70
2017,07,16,04,39,14.60
2017,07,16,04,40,14.60
2017,07,16,04,41,14.60
2017,07,16,04,42,14.60
2017,07,16,04,43,14.50
2017,07,16,04,44,14.40
2017,07,16,04,45,14.30
2017,07,16,04,46,14.30
2017,07,16,04,47,14.20
2017,07,16,04,48,14.10
2017,07,16,04,49,14.10
2017,07,16,04,50,14.00
2017,07,16,04,51,14.00
2017,07,16,04,52,13.90
2017,07,16,04,53,13.90
2017,07,16,04,54,13.80
2017,07,16,04,55,13.80
2017,07,16,04,56,13.80
2017,07,16,04,57,13.80
2017,07,16,04,58,13.70
2017,07,16,04,59,13.70
2017,07,16,05,00,13.70
2017,07,16,05,01,13.60
2017,07,16,05,02,13.60
2017,07,16,05,03,13.60
2017,07,16,05,04,13.60
2017,07,16,05,05,13.50
2017,07,16,05,06,13.50
2017,07,16,05,07,13.50
2017,07,16,05,08,13.40
2017,07,16,05,09,13.40
2017,07,16,05,10,13.40
2017,07,16,05,11,13.30
2017,07,16,05,12,13.30
2017,07,16,05,13,13.30
2017,07,16,05,14,13.30
2017,07,16,05,15,13.30
2017,07,16,05,16,13.30
2017,07,16,05,17,13.20
2017,07,16,05,18,13.20
2017,07,16,05,19,13.20
2017,07,16,05,20,13.20
2017,07,16,05,21,13.20
2017,07,16,05,22,13.20
2017,07,16,05,23,13.20
2017,07,16,05,24,13.20
2017,07,16,05,25,13.20
2017,07,16,05,26,13.20
2017,07,16,05,27,13.20
2017,07,16,05,28,13.20
2017,07,16,05,29,13.20
2017,07,16,05,30,13.20
2017,07,16,05,31,13.20
2017,07,16,05,32,13.20
2017,07,16,05,33,13.20
2017,07,16,05,34,13.20
2017,07,16,05,35,13.20
2017,07,16,05,36,13.20
2017,07,16,05,37,13.20
2017,07,16,05,38,13.20
2017,07,16,05,39,13.20
2017,07,16,05,40,13.20
2017,07,16,05,41,13.20
2017,07,16,05,42,13.20
2017,07,16,05,43,13.20
2017,07,16,05,44,13.20
2017,07,16,05,45,13.20
2017,07,16,05,46,13.30
2017,07,16,05,47,13.30
2017,07,16,05,48,13.30
2017,07,16,05,49,13.30
2017,07,16,05,50,13.30
2017,07,16,05,51,13.30
2017,07,16,05,52,13.30
2017,07,16,05,53,13.30
2017,07,16,05,54,13.30
2017,07,16,05,55,13.40
2017,07,16,05,56,13.40
2017,07,16,05,57,13.40
2017,07,16,05,58,13.40
2017,07,16,05,59,13.40
2017,07,16,06,00,13.40
2017,07,16,06,01,13.40
2017,07,16,06,02,13.40
2017,07,16,06,03,13.50
2017,07,16,06,04,13.50
2017,07,16,06,05,13.50
2017,07,16,06,06,13.50
2017,07,16,06,07,13.60
2017,07,16,06,08,13.60
2017,07,16,06,09,13.60
2017,07,16,06,10,13.60
2017,07,16,06,11,13.60
2017,07,16,06,12,13.60
2017,07,16,06,13,13.70
2017,07,16,06,14,13.70
2017,07,16,06,15,13.70
2017,07,16,06,16,13.70
2017,07,16,06,17,13.70
2017,07,16,06,18,13.70
2017,07,16,06,19,13.80
2017,07,16,06,20,13.80
2017,07,16,06,21,13.80
2017,07,16,06,22,13.80
2017,07,16,06,23,13.80
2017,07,16,06,24,13.80
2017,07,16,06,25,13.80
2017,07,16,06,26,13.80
2017,07,16,06,27,13.80
2017,07,16,06,28,13.80
2017,07,16,06,29,13.80
2017,07,16,06,30,13.80
2017,07,16,06,31,13.90
2017,07,16,06,32,13.90
2017,07,16,06,33,13.90
2017,07,16,06,34,14.00
2017,07,16,06,35,14.00
2017,07,16,06,36,14.10
2017,07,16,06,37,14.10
2017,07,16,06,38,14.10
2017,07,16,06,39,14.20
2017,07,16,06,40,14.20
2017,07,16,06,41,14.20
2017,07,16,06,42,14.20
2017,07,16,06,43,14.20
2017,07,16,06,44,14.30
2017,07,16,06,45,14.30
2017,07,16,06,46,14.30
2017,07,16,06,47,14.30
2017,07,16,06,48,14.30
2017,07,16,06,49,14.30
2017,07,16,06,50,14.40
2017,07,16,06,51,14.40
2017,07,16,06,52,14.40
2017,07,16,06,53,14.40
2017,07,16,06,54,14.40
2017,07,16,06,55,14.40
2017,07,16,06,56,14.40
2017,07,16,06,57,14.40
2017,07,16,06,58,14.40
2017,07,16,06,59,14.40
2017,07,16,07,00,14.40
2017,07,16,07,01,14.40
2017,07,16,07,02,14.40
2017,07,16,07,03,14.50
2017,07,16,07,04,14.50
2017,07,16,07,05,14.50
2017,07,16,07,06,14.50
2017,07,16,07,07,14.50
2017,07,16,07,08,14.50
2017,07,16,07,09,14.50
2017,07,16,07,10,14.50
2017,07,16,07,11,14.40
2017,07,16,07,12,14.40
2017,07,16,07,13,14.40
2017,07,16,07,14,14.50
2017,07,16,07,15,14.50
2017,07,16,07,16,14.50
2017,07,16,07,17,14.50
2017,07,16,07,18,14.50
2017,07,16,07,19,14.50
2017,07,16,07,20,14.50
2017,07,16,07,21,14.50
2017,07,16,07,22,14.50
2017,07,16,07,23,14.50
2017,07,16,07,24,14.50
2017,07,16,07,25,14.50
2017,07,16,07,26,14.50
2017,07,16,07,27,14.50
2017,07,16,07,28,14.50
2017,07,16,07,29,14.50
2017,07,16,07,30,14.50
2017,07,16,07,31,14.50
2017,07,16,07,32,14.50
2017,07,16,07,33,14.60
2017,07,16,07,34,14.60
2017,07,16,07,35,14.60
2017,07,16,07,36,14.60
2017,07,16,07,37,14.60
2017,07,16,07,38,14.60
2017,07,16,07,39,14.60
2017,07,16,07,40,14.60
2017,07,16,07,41,14.60
2017,07,16,07,42,14.60
2017,07,16,07,43,14.60
2017,07,16,07,44,14.60
2017,07,16,07,45,14.60
2017,07,16,07,46,14.60
2017,07,16,07,47,14.70
2017,07,16,07,48,14.70
2017,07,16,07,49,14.70
2017,07,16,07,50,14.80
2017,07,16,07,51,14.80
2017,07,16,07,52,14.90
2017,07,16,07,53,14.90
2017,07,16,07,54,14.90
2017,07,16,07,55,14.90
2017,07,16,07,56,14.90
2017,07,16,07,57,14.90
2017,07,16,07,58,14.90
2017,07,16,07,59,14.90
2017,07,16,08,00,14.90
2017,07,16,08,01,14.90
2017,07,16,08,02,14.90
2017,07,16,08,03,14.90
2017,07,16,08,04,14.90
2017,07,16,08,05,14.90
2017,07,16,08,06,14.90
2017,07,16,08,07,14.90
2017,07,16,08,08,14.90
2017,07,16,08,09,14.90
2017,07,16,08,10,14.90
2017,07,16,08,11,14.90
2017,07,16,08,12,15.00
2017,07,16,08,13,15.00
2017,07,16,08,14,15.00
2017,07,16,08,15,15.10
2017,07,16,08,16,15.10
2017,07,16,08,17,15.10
2017,07,16,08,18,15.10
2017,07,16,08,19,15.20
2017,07,16,08,20,15.20
2017,07,16,08,21,15.20
2017,07,16,08,22,15.20
2017,07,16,08,23,15.30
2017,07,16,08,24,15.30
2017,07,16,08,25,15.40
2017,07,16,08,26,15.40
2017,07,16,08,27,15.40
2017,07,16,08,28,15.50
2017,07,16,08,29,15.60
2017,07,16,08,30,15.60
2017,07,16,08,31,15.70
2017,07,16,08,32,15.80
2017,07,16,08,33,15.80
2017,07,16,08,34,15.90
2017,07,16,08,35,15.90
2017,07,16,08,36,15.90
2017,07,16,08,37,16.00
2017,07,16,08,38,16.00
2017,07,16,08,39,16.00
2017,07,16,08,40,16.00
2017,07,16,08,41,15.90
2017,07,16,08,42,15.90
2017,07,16,08,43,15.90
2017,07,16,08,44,15.80
2017,07,16,08,45,15.80
2017,07,16,08,46,15.80
2017,07,16,08,47,15.80
2017,07,16,08,48,15.80
2017,07,16,08,49,15.80
2017,07,16,08,50,15.80
2017,07,16,08,51,15.80
2017,07,16,08,52,15.80
2017,07,16,08,53,15.80
2017,07,16,08,54,15.90
2017,07,16,08,55,15.90
2017,07,16,08,56,15.90
2017,07,16,08,57,16.00
2017,07,16,08,58,16.10
2017,07,16,08,59,16.10
2017,07,16,09,00,16.20
2017,07,16,09,01,16.20
2017,07,16,09,02,16.20
2017,07,16,09,03,16.30
2017,07,16,09,04,16.30
2017,07,16,09,05,16.30
2017,07,16,09,06,16.30
2017,07,16,09,07,16.30
2017,07,16,09,08,16.40
2017,07,16,09,09,16.50
2017,07,16,09,10,16.50
2017,07,16,09,11,16.60
2017,07,16,09,12,16.70
2017,07,16,09,13,16.70
2017,07,16,09,14,16.70
2017,07,16,09,15,16.70
2017,07,16,09,16,16.70
2017,07,16,09,17,16.70
2017,07,16,09,18,16.70
2017,07,16,09,19,16.70
2017,07,16,09,20,16.60
2017,07,16,09,21,16.60
2017,07,16,09,22,16.60
2017,07,16,09,23,16.60
2017,07,16,09,24,16.60
2017,07,16,09,25,16.60
2017,07,16,09,26,16.60
2017,07,16,09,27,16.70
2017,07,16,09,28,16.80
2017,07,16,09,29,16.90
2017,07,16,09,30,17.00
2017,07,16,09,31,17.00
2017,07,16,09,32,17.10
2017,07,16,09,33,17.10
2017,07,16,09,34,17.00
2017,07,16,09,35,17.00
2017,07,16,09,36,17.00
2017,07,16,09,37,17.00
2017,07,16,09,38,17.00
2017,07,16,09,39,17.00
2017,07,16,09,40,17.10
2017,07,16,09,41,17.20
2017,07,16,09,42,17.30
2017,07,16,09,43,17.40
2017,07,16,09,44,17.50
2017,07,16,09,45,17.60
2017,07,16,09,46,17.70
2017,07,16,09,47,17.90
2017,07,16,09,48,17.90
2017,07,16,09,49,17.90
2017,07,16,09,50,17.90
2017,07,16,09,51,17.90
2017,07,16,09,52,18.00
2017,07,16,09,53,18.00
2017,07,16,09,54,17.90
2017,07,16,09,55,17.90
2017,07,16,09,56,17.90
2017,07,16,09,57,17.90
2017,07,16,09,58,18.00
2017,07,16,09,59,18.00
2017,07,16,10,00,18.10
2017,07,16,10,01,18.20
2017,07,16,10,02,18.20
2017,07,16,10,03,18.30
2017,07,16,10,04,18.30
2017,07,16,10,05,18.20
2017,07,16,10,06,18.20
2017,07,16,10,07,18.20
2017,07,16,10,08,18.20
2017,07,16,10,09,18.20
2017,07,16,10,10,18.20
2017,07,16,10,11,18.20
2017,07,16,10,12,18.20
2017,07,16,10,13,18.20
2017,07,16,10,14,18.10
2017,07,16,10,15,18.00
2017,07,16,10,16,18.00
2017,07,16,10,17,17.90
2017,07,16,10,18,18.00
2017,07,16,10,19,18.00
2017,07,16,10,20,18.00
2017,07,16,10,21,18.00
2017,07,16,10,22,18.10
2017,07,16,10,23,18.20
2017,07,16,10,24,18.30
2017,07,16,10,25,18.30
2017,07,16,10,26,18.30
2017,07,16,10,27,18.20
2017,07,16,10,28,18.10
2017,07,16,10,29,18.10
2017,07,16,10,30,18.10
2017,07,16,10,31,18.10
2017,07,16,10,32,18.10
2017,07,16,10,33,18.20
2017,07,16,10,34,18.30
2017,07,16,10,35,18.40
2017,07,16,10,36,18.50
2017,07,16,10,37,18.60
2017,07,16,10,38,18.60
2017,07,16,10,39,18.50
2017,07,16,10,40,18.50
2017,07,16,10,41,18.50
2017,07,16,10,42,18.50
2017,07,16,10,43,18.50
2017,07,16,10,44,18.60
2017,07,16,10,45,18.60
2017,07,16,10,46,18.60
2017,07,16,10,47,18.60
2017,07,16,10,48,18.60
2017,07,16,10,49,18.60
2017,07,16,10,50,18.70
2017,07,16,10,51,18.70
2017,07,16,10,52,18.70
2017,07,16,10,53,18.80
2017,07,16,10,54,18.70
2017,07,16,10,55,18.70
2017,07,16,10,56,18.70
2017,07,16,10,57,18.70
2017,07,16,10,58,18.80
2017,07,16,10,59,18.80
2017,07,16,11,00,18.80
2017,07,16,11,01,18.90
2017,07,16,11,02,18.90
2017,07,16,11,03,18.80
2017,07,16,11,04,18.70
2017,07,16,11,05,18.70
2017,07,16,11,06,18.60
2017,07,16,11,07,18.50
2017,07,16,11,08,18.40
2017,07,16,11,09,18.30
2017,07,16,11,10,18.30
2017,07,16,11,11,18.20
2017,07,16,11,12,18.10
2017,07,16,11,13,18.10
2017,07,16,11,14,18.00
2017,07,16,11,15,18.00
2017,07,16,11,16,18.00
2017,07,16,11,17,18.10
2017,07,16,11,18,18.00
2017,07,16,11,19,18.00
2017,07,16,11,20,18.00
2017,07,16,11,21,18.00
2017,07,16,11,22,18.00
2017,07,16,11,23,18.10
2017,07,16,11,24,18.20
2017,07,16,11,25,18.20
2017,07,16,11,26,18.20
2017,07,16,11,27,18.20
2017,07,16,11,28,18.20
2017,07,16,11,29,18.20
2017,07,16,11,30,18.30
2017,07,16,11,31,18.20
2017,07,16,11,32,18.20
2017,07,16,11,33,18.20
2017,07,16,11,34,18.20
2017,07,16,11,35,18.20
2017,07,16,11,36,18.20
2017,07,16,11,37,18.20
2017,07,16,11,38,18.20
2017,07,16,11,39,18.10
2017,07,16,11,40,18.10
2017,07,16,11,41,18.10
2017,07,16,11,42,18.00
2017,07,16,11,43,17.90
2017,07,16,11,44,17.90
2017,07,16,11,45,17.80
2017,07,16,11,46,17.80
2017,07,16,11,47,17.80
2017,07,16,11,48,17.90
2017,07,16,11,49,17.90
2017,07,16,11,50,18.00
2017,07,16,11,51,18.10
2017,07,16,11,52,18.20
2017,07,16,11,53,18.20
2017,07,16,11,54,18.30
2017,07,16,11,55,18.30
2017,07,16,11,56,18.30
2017,07,16,11,57,18.30
2017,07,16,11,58,18.40
2017,07,16,11,59,18.50
2017,07,16,12,00,18.50
2017,07,16,12,01,18.60
2017,07,16,12,02,18.70
2017,07,16,12,03,18.70
2017,07,16,12,04,18.70
2017,07,16,12,05,18.80
2017,07,16,12,06,18.80
2017,07,16,12,07,18.80
2017,07,16,12,08,18.80
2017,07,16,12,09,18.80
2017,07,16,12,10,18.80
2017,07,16,12,11,18.90
2017,07,16,12,12,18.90
2017,07,16,12,13,18.80
2017,07,16,12,14,18.80
2017,07,16,12,15,18.80
2017,07,16,12,16,18.80
2017,07,16,12,17,18.80
2017,07,16,12,18,18.80
2017,07,16,12,19,18.80
2017,07,16,12,20,18.80
2017,07,16,12,21,18.90
2017,07,16,12,22,18.90
2017,07,16,12,23,18.90
2017,07,16,12,24,18.90
2017,07,16,12,25,18.80
2017,07,16,12,26,18.60
2017,07,16,12,27,18.50
2017,07,16,12,28,18.40
2017,07,16,12,29,18.30
2017,07,16,12,30,18.30
2017,07,16,12,31,18.30
2017,07,16,12,32,18.30
2017,07,16,12,33,18.40
2017,07,16,12,34,18.50
2017,07,16,12,35,18.60
2017,07,16,12,36,18.60
2017,07,16,12,37,18.70
2017,07,16,12,38,18.70
2017,07,16,12,39,18.70
2017,07,16,12,40,18.80
2017,07,16,12,41,18.80
2017,07,16,12,42,18.70
2017,07,16,12,43,18.70
2017,07,16,12,44,18.70
2017,07,16,12,45,18.60
2017,07,16,12,46,18.60
2017,07,16,12,47,18.60
2017,07,16,12,48,18.60
2017,07,16,12,49,18.60
2017,07,16,12,50,18.60
2017,07,16,12,51,18.50
2017,07,16,12,52,18.50
2017,07,16,12,53,18.50
2017,07,16,12,54,18.50
2017,07,16,12,55,18.50
2017,07,16,12,56,18.60
2017,07,16,12,57,18.60
2017,07,16,12,58,18.60
2017,07,16,12,59,18.70
2017,07,16,13,00,18.70
2017,07,16,13,01,18.80
2017,07,16,13,02,18.90
2017,07,16,13,03,19.00
2017,07,16,13,04,19.10
2017,07,16,13,05,19.10
2017,07,16,13,06,19.00
2017,07,16,13,07,19.00
2017,07,16,13,08,18.90
2017,07,16,13,09,18.80
2017,07,16,13,10,18.80
2017,07,16,13,11,18.70
2017,07,16,13,12,18.80
2017,07,16,13,13,18.90
2017,07,16,13,14,19.00
2017,07,16,13,15,19.00
2017,07,16,13,16,19.00
2017,07,16,13,17,19.00
2017,07,16,13,18,18.90
2017,07,16,13,19,18.90
2017,07,16,13,20,18.80
2017,07,16,13,21,18.80
2017,07,16,13,22,18.80
2017,07,16,13,23,18.80
2017,07,16,13,24,18.80
2017,07,16,13,25,18.80
2017,07,16,13,26,18.70
2017,07,16,13,27,18.70
2017,07,16,13,28,18.70
2017,07,16,13,29,18.80
2017,07,16,13,30,18.80
2017,07,16,13,31,18.80
2017,07,16,13,32,18.90
2017,07,16,13,33,19.00
2017,07,16,13,34,19.10
2017,07,16,13,35,19.10
2017,07,16,13,36,19.10
2017,07,16,13,37,19.20
2017,07,16,13,38,19.30
2017,07,16,13,39,19.40
2017,07,16,13,40,19.50
2017,07,16,13,41,19.50
2017,07,16,13,42,19.60
2017,07,16,13,43,19.70
2017,07,16,13,44,19.80
2017,07,16,13,45,19.80
2017,07,16,13,46,19.80
2017,07,16,13,47,19.80
2017,07,16,13,48,19.80
2017,07,16,13,49,19.80
2017,07,16,13,50,19.90
2017,07,16,13,51,20.00
2017,07,16,13,52,20.10
2017,07,16,13,53,20.10
2017,07,16,13,54,20.10
2017,07,16,13,55,20.00
2017,07,16,13,56,19.90
2017,07,16,13,57,19.80
2017,07,16,13,58,19.80
2017,07,16,13,59,19.70
2017,07,16,14,00,19.60
2017,07,16,14,01,19.60
2017,07,16,14,02,19.50
2017,07,16,14,03,19.40
2017,07,16,14,04,19.40
2017,07,16,14,05,19.40
2017,07,16,14,06,19.40
2017,07,16,14,07,19.40
2017,07,16,14,08,19.40
2017,07,16,14,09,19.40
2017,07,16,14,10,19.30
2017,07,16,14,11,19.30
2017,07,16,14,12,19.20
2017,07,16,14,13,19.20
2017,07,16,14,14,19.10
2017,07,16,14,15,19.10
2017,07,16,14,16,19.10
2017,07,16,14,17,19.10
2017,07,16,14,18,19.10
2017,07,16,14,19,19.10
2017,07,16,14,20,19.20
2017,07,16,14,21,19.20
2017,07,16,14,22,19.10
2017,07,16,14,23,19.10
2017,07,16,14,24,19.00
2017,07,16,14,25,19.00
2017,07,16,14,26,19.00
2017,07,16,14,27,19.00
2017,07,16,14,28,18.90
2017,07,16,14,29,18.90
2017,07,16,14,30,18.90
2017,07,16,14,31,18.80
2017,07,16,14,32,18.70
2017,07,16,14,33,18.60
2017,07,16,14,34,18.50
2017,07,16,14,35,18.50
2017,07,16,14,36,18.50
2017,07,16,14,37,18.50
2017,07,16,14,38,18.60
2017,07,16,14,39,18.60
2017,07,16,14,40,18.60
2017,07,16,14,41,18.60
2017,07,16,14,42,18.60
2017,07,16,14,43,18.60
2017,07,16,14,44,18.60
2017,07,16,14,45,18.60
2017,07,16,14,46,18.60
2017,07,16,14,47,18.60
2017,07,16,14,48,18.60
2017,07,16,14,49,18.60
2017,07,16,14,50,18.60
2017,07,16,14,51,18.60
2017,07,16,14,52,18.70
2017,07,16,14,53,18.70
2017,07,16,14,54,18.80
2017,07,16,14,55,18.90
2017,07,16,14,56,18.90
2017,07,16,14,57,19.00
2017,07,16,14,58,19.10
2017,07,16,14,59,19.10
2017,07,16,15,00,19.20
2017,07,16,15,01,19.20
2017,07,16,15,02,19.20
2017,07,16,15,03,19.10
2017,07,16,15,04,19.00
2017,07,16,15,05,18.80
2017,07,16,15,06,18.60
2017,07,16,15,07,18.50
2017,07,16,15,08,18.40
2017,07,16,15,09,18.30
2017,07,16,15,10,18.30
2017,07,16,15,11,18.30
2017,07,16,15,12,18.40
2017,07,16,15,13,18.40
2017,07,16,15,14,18.50
2017,07,16,15,15,18.60
2017,07,16,15,16,18.60
2017,07,16,15,17,18.60
2017,07,16,15,18,18.60
2017,07,16,15,19,18.50
2017,07,16,15,20,18.50
2017,07,16,15,21,18.50
2017,07,16,15,22,18.50
2017,07,16,15,23,18.60
2017,07,16,15,24,18.60
2017,07,16,15,25,18.60
2017,07,16,15,26,18.70
2017,07,16,15,27,18.70
2017,07,16,15,28,18.80
2017,07,16,15,29,18.80
2017,07,16,15,30,18.90
2017,07,16,15,31,18.90
2017,07,16,15,32,19.00
2017,07,16,15,33,19.00
2017,07,16,15,34,19.00
2017,07,16,15,35,19.00
2017,07,16,15,36,19.10
2017,07,16,15,37,19.10
2017,07,16,15,38,19.10
2017,07,16,15,39,19.10
2017,07,16,15,40,19.20
2017,07,16,15,41,19.20
2017,07,16,15,42,19.20
2017,07,16,15,43,19.30
2017,07,16,15,44,19.30
2017,07,16,15,45,19.30
2017,07,16,15,46,19.30
2017,07,16,15,47,19.30
2017,07,16,15,48,19.30
2017,07,16,15,49,19.20
2017,07,16,15,50,19.20
2017,07,16,15,51,19.20
2017,07,16,15,52,19.20
2017,07,16,15,53,19.20
2017,07,16,15,54,19.10
2017,07,16,15,55,19.10
2017,07,16,15,56,19.10
2017,07,16,15,57,19.10
2017,07,16,15,58,19.10
2017,07,16,15,59,19.10
2017,07,16,16,00,19.20
2017,07,16,16,01,19.20
2017,07,16,16,02,19.30
2017,07,16,16,03,19.40
2017,07,16,16,04,19.50
2017,07,16,16,05,19.60
2017,07,16,16,06,19.70
2017,07,16,16,07,19.80
2017,07,16,16,08,19.80
2017,07,16,16,09,19.70
2017,07,16,16,10,19.70
2017,07,16,16,11,19.80
2017,07,16,16,12,19.80
2017,07,16,16,13,19.80
2017,07,16,16,14,19.80
2017,07,16,16,15,19.90
2017,07,16,16,16,19.90
2017,07,16,16,17,19.90
2017,07,16,16,18,19.90
2017,07,16,16,19,20.00
2017,07,16,16,20,20.10
2017,07,16,16,21,20.20
2017,07,16,16,22,20.30
2017,07,16,16,23,20.40
2017,07,16,16,24,20.50
2017,07,16,16,25,20.50
2017,07,16,16,26,20.60
2017,07,16,16,27,20.70
2017,07,16,16,28,20.70
2017,07,16,16,29,20.80
2017,07,16,16,30,20.80
2017,07,16,16,31,20.80
2017,07,16,16,32,20.80
2017,07,16,16,33,20.80
2017,07,16,16,34,20.80
2017,07,16,16,35,20.80
2017,07,16,16,36,20.80
2017,07,16,16,37,20.80
2017,07,16,16,38,20.90
2017,07,16,16,39,21.00
2017,07,16,16,40,21.00
2017,07,16,16,41,21.00
2017,07,16,16,42,21.00
2017,07,16,16,43,21.00
2017,07,16,16,44,21.00
2017,07,16,16,45,20.90
2017,07,16,16,46,20.90
2017,07,16,16,47,20.90
2017,07,16,16,48,20.90
2017,07,16,16,49,20.80
2017,07,16,16,50,20.70
2017,07,16,16,51,20.70
2017,07,16,16,52,20.60
2017,07,16,16,53,20.50
2017,07,16,16,54,20.50
2017,07,16,16,55,20.50
2017,07,16,16,56,20.50
2017,07,16,16,57,20.60
2017,07,16,16,58,20.60
2017,07,16,16,59,20.60
2017,07,16,17,00,20.60
2017,07,16,17,01,20.60
2017,07,16,17,02,20.60
2017,07,16,17,03,20.60
2017,07,16,17,04,20.70
2017,07,16,17,05,20.70
2017,07,16,17,06,20.70
2017,07,16,17,07,20.80
2017,07,16,17,08,20.80
2017,07,16,17,09,20.90
2017,07,16,17,10,20.90
2017,07,16,17,11,20.90
2017,07,16,17,12,20.90
2017,07,16,17,13,20.90
2017,07,16,17,14,20.90
2017,07,16,17,15,20.90
2017,07,16,17,16,20.90
2017,07,16,17,17,20.90
2017,07,16,17,18,20.90
2017,07,16,17,19,20.90